Location: Rotheul
(50.2849°N, 11.2349°E)
Time: 23:30:32
(UTC+02:00)

ISS - Pass Details

Date: 13 July 2018
Orbit: 402 x 408 km, 51.6° (Epoch: 16 July)

Event Time Altitude Azimuth Distance (km) Brightness Sun altitude
Exits shadow 01:58:10 32° 125° (SE) 731 -2.8 -17.4°
Drops below altitude 10° 02:00:37 10° 82° (E) 1,470 -0.8 -17.3°
Sets 02:02:48 0° 74° (ENE) 2,335 0.4 -17.3°
